When you browse on this site, cookies collect data to enhance your experience and personalize the content and advertising you see.
Visit our Privacy Policy to learn more. By continuing to use the site, you agree to this use of cookies and data.
  • En España
  • Lista de países
  • Para 7 días
  • Temperatura del agua
  • El tiempo en el mapa
  • Informadores
  • user-avatar
    Iniciar sesión

    Tiempo cada hora Skalat

    Hoy, 3 Junio, Miércoles

    Tiempo Temperatura Precipitaciones Viento Presión Humedad
    00:00 +7°C° 0.3 mm 3 mps 723 mmHg 96%
    01:00 +7°C° 0.3 mm 3 mps 723 mmHg 97%
    02:00 +7°C° 0 mm 3 mps 723 mmHg 97%
    03:00 +7°C° 0.2 mm 3 mps 723 mmHg 97%
    04:00 +7°C° 0.2 mm 3 mps 723 mmHg 97%
    05:00 +7°C° 0.2 mm 3 mps 722 mmHg 97%
    06:00 +8°C° 0.2 mm 3 mps 723 mmHg 93%
    07:00 +8°C° 0.2 mm 3 mps 723 mmHg 89%
    08:00 +9°C° 0.2 mm 2 mps 723 mmHg 86%
    09:00 +10°C° 0.2 mm 3 mps 724 mmHg 82%
    10:00 +10°C° 0.2 mm 3 mps 724 mmHg 79%
    11:00 +11°C° 0.2 mm 3 mps 724 mmHg 76%
    12:00 +12°C° 0.4 mm 3 mps 724 mmHg 75%
    13:00 +12°C° 0.4 mm 3 mps 724 mmHg 75%
    14:00 +13°C° 0.4 mm 4 mps 724 mmHg 74%
    15:00 +13°C° 0.2 mm 4 mps 724 mmHg 75%
    16:00 +13°C° 0.2 mm 4 mps 723 mmHg 75%
    17:00 +13°C° 0.2 mm 4 mps 723 mmHg 76%
    18:00 +12°C° 0.1 mm 3 mps 723 mmHg 81%
    19:00 +11°C° 0.1 mm 3 mps 723 mmHg 87%
    20:00 +9°C° 0.1 mm 2 mps 723 mmHg 92%
    21:00 +9°C° 0 mm 2 mps 723 mmHg 93%
    22:00 +8°C° 0 mm 2 mps 723 mmHg 93%
    23:00 +8°C° 0 mm 2 mps 723 mmHg 94%

    Mañana, 4 Junio, Jueves

    Tiempo Temperatura Precipitaciones Viento Presión Humedad
    00:00 +7°C° 0 mm 2 mps 723 mmHg 94%
    01:00 +7°C° 0 mm 2 mps 723 mmHg 94%
    02:00 +7°C° 0 mm 2 mps 723 mmHg 94%
    03:00 +7°C° 0 mm 2 mps 723 mmHg 94%
    04:00 +7°C° 0 mm 2 mps 723 mmHg 94%
    05:00 +7°C° 0 mm 2 mps 723 mmHg 95%
    06:00 +9°C° 0 mm 2 mps 723 mmHg 90%
    07:00 +11°C° 0 mm 3 mps 723 mmHg 86%
    08:00 +13°C° 0 mm 3 mps 723 mmHg 81%
    09:00 +14°C° 0.6 mm 3 mps 723 mmHg 78%
    10:00 +15°C° 0.6 mm 4 mps 723 mmHg 75%
    11:00 +17°C° 0.6 mm 4 mps 723 mmHg 72%
    12:00 +17°C° 0.6 mm 4 mps 723 mmHg 71%
    13:00 +17°C° 0.6 mm 5 mps 723 mmHg 70%
    14:00 +17°C° 0.6 mm 5 mps 723 mmHg 69%
    15:00 +18°C° 0.4 mm 4 mps 723 mmHg 71%
    16:00 +18°C° 0.4 mm 4 mps 722 mmHg 73%
    17:00 +18°C° 0.4 mm 4 mps 722 mmHg 74%
    18:00 +17°C° 0.2 mm 3 mps 722 mmHg 78%
    19:00 +16°C° 0.2 mm 3 mps 722 mmHg 82%
    20:00 +15°C° 0.2 mm 2 mps 722 mmHg 86%
    21:00 +13°C° 0.2 mm 3 mps 722 mmHg 88%
    22:00 +13°C° 0.2 mm 3 mps 722 mmHg 90%
    23:00 +13°C° 0.2 mm 4 mps 722 mmHg 92%

    Pasado mañana, 5 Junio, Viernes

    Tiempo Temperatura Precipitaciones Viento Presión Humedad
    00:00 +13°C° 0.1 mm 4 mps 722 mmHg 93%
    01:00 +13°C° 0.1 mm 4 mps 722 mmHg 93%
    02:00 +13°C° 0.1 mm 4 mps 722 mmHg 94%
    03:00 +13°C° 0.1 mm 4 mps 722 mmHg 93%
    04:00 +13°C° 0.1 mm 4 mps 722 mmHg 92%
    05:00 +13°C° 0.1 mm 4 mps 721 mmHg 91%
    06:00 +14°C° 0.2 mm 4 mps 722 mmHg 91%
    07:00 +14°C° 0.2 mm 4 mps 722 mmHg 90%
    08:00 +15°C° 0.2 mm 4 mps 722 mmHg 90%
    09:00 +15°C° 0.2 mm 5 mps 723 mmHg 89%
    10:00 +15°C° 0.2 mm 5 mps 723 mmHg 88%
    11:00 +15°C° 0.2 mm 5 mps 723 mmHg 87%
    12:00 +19°C° 0 mm 6 mps 723 mmHg 80%
    13:00 +21°C° 0 mm 6 mps 723 mmHg 73%
    14:00 +23°C° 0 mm 7 mps 723 mmHg 66%
    15:00 +23°C° 0.1 mm 6 mps 723 mmHg 68%
    16:00 +25°C° 0.1 mm 4 mps 723 mmHg 70%
    17:00 +25°C° 0.1 mm 3 mps 723 mmHg 73%
    18:00 +22°C° 0.1 mm 3 mps 723 mmHg 75%
    19:00 +21°C° 0.1 mm 2 mps 723 mmHg 77%
    20:00 +19°C° 0.1 mm 2 mps 723 mmHg 80%
    21:00 +18°C° 0 mm 2 mps 723 mmHg 79%
    22:00 +18°C° 0 mm 2 mps 723 mmHg 79%
    23:00 +17°C° 0 mm 2 mps 723 mmHg 79%

    6 Junio, Sábado

    Tiempo Temperatura Precipitaciones Viento Presión Humedad
    00:00 +17°C° 0 mm 2 mps 723 mmHg 78%
    01:00 +17°C° 0 mm 3 mps 723 mmHg 76%
    02:00 +17°C° 0 mm 3 mps 724 mmHg 75%
    03:00 +16°C° 0 mm 3 mps 724 mmHg 78%
    04:00 +16°C° 0 mm 3 mps 724 mmHg 81%
    05:00 +14°C° 0 mm 3 mps 724 mmHg 84%
    06:00 +16°C° 0 mm 3 mps 725 mmHg 83%
    07:00 +17°C° 0 mm 2 mps 725 mmHg 83%
    08:00 +17°C° 0 mm 2 mps 726 mmHg 82%
    09:00 +18°C° 0.1 mm 2 mps 727 mmHg 82%
    10:00 +18°C° 0.1 mm 2 mps 727 mmHg 82%
    11:00 +19°C° 0.1 mm 2 mps 728 mmHg 81%
    12:00 +20°C° 0.1 mm 2 mps 728 mmHg 77%
    13:00 +21°C° 0.1 mm 2 mps 728 mmHg 72%
    14:00 +23°C° 0.1 mm 2 mps 728 mmHg 68%
    15:00 +23°C° 0.2 mm 1 mps 728 mmHg 68%
    16:00 +23°C° 0.2 mm 1 mps 728 mmHg 68%
    17:00 +23°C° 0.2 mm 1 mps 728 mmHg 68%
    18:00 +22°C° 0.1 mm 1 mps 728 mmHg 73%
    19:00 +20°C° 0.1 mm 1 mps 728 mmHg 78%
    20:00 +19°C° 0.1 mm 1 mps 728 mmHg 83%
    21:00 +17°C° 0 mm 2 mps 729 mmHg 85%
    22:00 +16°C° 0 mm 2 mps 729 mmHg 88%
    23:00 +16°C° 0 mm 3 mps 729 mmHg 91%

    7 Junio, Domingo

    Tiempo Temperatura Precipitaciones Viento Presión Humedad
    00:00 +16°C° 0.1 mm 3 mps 729 mmHg 91%
    01:00 +16°C° 0.1 mm 3 mps 729 mmHg 91%
    02:00 +14°C° 0.1 mm 3 mps 729 mmHg 92%
    03:00 +14°C° 0.1 mm 3 mps 729 mmHg 93%
    04:00 +14°C° 0.1 mm 3 mps 729 mmHg 94%
    05:00 +14°C° 0.1 mm 3 mps 729 mmHg 96%
    06:00 +16°C° 0 mm 3 mps 729 mmHg 92%
    07:00 +18°C° 0 mm 4 mps 729 mmHg 89%
    08:00 +19°C° 0 mm 5 mps 729 mmHg 86%
    09:00 +20°C° 0.2 mm 5 mps 729 mmHg 83%
    10:00 +21°C° 0.2 mm 5 mps 729 mmHg 80%
    11:00 +22°C° 0.2 mm 5 mps 729 mmHg 78%
    12:00 +22°C° 0.6 mm 4 mps 729 mmHg 78%
    13:00 +23°C° 0.6 mm 4 mps 728 mmHg 78%
    14:00 +23°C° 0.6 mm 4 mps 728 mmHg 77%
    15:00 +24°C° 0.4 mm 3 mps 728 mmHg 77%
    16:00 +24°C° 0.4 mm 3 mps 728 mmHg 76%
    17:00 +24°C° 0.4 mm 2 mps 728 mmHg 75%
    18:00 +23°C° 0.5 mm 2 mps 728 mmHg 79%
    19:00 +21°C° 0.5 mm 2 mps 728 mmHg 82%
    20:00 +20°C° 0.5 mm 2 mps 728 mmHg 86%
    21:00 +19°C° 0 mm 2 mps 728 mmHg 86%
    22:00 +18°C° 0 mm 2 mps 729 mmHg 87%
    23:00 +18°C° 0 mm 2 mps 729 mmHg 87%

    8 Junio, Lunes

    Tiempo Temperatura Precipitaciones Viento Presión Humedad
    00:00 +17°C° 0 mm 2 mps 729 mmHg 89%
    01:00 +17°C° 0 mm 2 mps 729 mmHg 91%
    02:00 +16°C° 0 mm 1 mps 729 mmHg 92%
    03:00 +16°C° 0.1 mm 1 mps 729 mmHg 92%
    04:00 +16°C° 0.1 mm 1 mps 729 mmHg 93%
    05:00 +16°C° 0.1 mm 1 mps 729 mmHg 93%
    06:00 +18°C° 0 mm 1 mps 729 mmHg 91%
    07:00 +18°C° 0 mm 2 mps 730 mmHg 89%
    08:00 +19°C° 0 mm 2 mps 730 mmHg 86%
    09:00 +20°C° 0 mm 2 mps 730 mmHg 82%
    10:00 +23°C° 0 mm 2 mps 730 mmHg 78%
    11:00 +24°C° 0 mm 2 mps 730 mmHg 74%
    12:00 +24°C° 0.6 mm 3 mps 730 mmHg 74%
    13:00 +25°C° 0.6 mm 4 mps 730 mmHg 74%
    14:00 +25°C° 0.6 mm 4 mps 729 mmHg 74%
    15:00 +25°C° 0.5 mm 4 mps 729 mmHg 76%
    16:00 +25°C° 0.5 mm 4 mps 729 mmHg 78%
    17:00 +25°C° 0.5 mm 4 mps 729 mmHg 80%
    18:00 +24°C° 0.1 mm 3 mps 729 mmHg 82%
    19:00 +21°C° 0.1 mm 3 mps 728 mmHg 84%
    20:00 +20°C° 0.1 mm 3 mps 728 mmHg 86%
    21:00 +20°C° 0 mm 3 mps 729 mmHg 86%
    22:00 +19°C° 0 mm 3 mps 729 mmHg 86%
    23:00 +18°C° 0 mm 3 mps 729 mmHg 86%
    Mostrar más